This is the latest recevied weather packets stored in our database for station/object HB9TJM-8. If no packets are shown the sender has not sent any weather packets the latest 10 day(s).
| Time | Temp. | Humidity | Pressure | Rain* | Wind** | Luminosity | Snow |
|---|---|---|---|---|---|---|---|
| 1777548023 | 12.78° C | 57% | 1021 hPa | 0 mm | - | 843 W/m² | - |
| 1777548022 | 12.78° C | 57% | 1021 hPa | 0 mm | - | 843 W/m² | - |
| 1777547407 | 12.78° C | 57% | 1021.3 hPa | 0 mm | - | 838 W/m² | - |
| 1777547100 | 12.22° C | 57% | 1021.1 hPa | 0 mm | - | 834 W/m² | - |
| 1777546792 | 11.67° C | 60% | 1021.2 hPa | 0 mm | - | 830 W/m² | - |
| 1777546485 | 12.22° C | 59% | 1021 hPa | 0 mm | - | 824 W/m² | - |
| 1777546178 | 11.67° C | 58% | 1020.9 hPa | 0 mm | - | 818 W/m² | - |
| 1777545871 | 11.67° C | 60% | 1021 hPa | 0 mm | - | 811 W/m² | - |
| 1777545563 | 12.22° C | 57% | 1020.8 hPa | 0 mm | - | 804 W/m² | - |
| 1777544948 | 11.67° C | 57% | 1020.7 hPa | 0 mm | - | 792 W/m² | - |
| 1777544641 | 11.67° C | 61% | 1020.9 hPa | 0 mm | - | 782 W/m² | - |
| 1777544333 | 11.11° C | 60% | 1021 hPa | 0 mm | - | 777 W/m² | - |
| 1777544026 | 11.11° C | 57% | 1020.8 hPa | 0 mm | - | 769 W/m² | - |
| 1777543718 | 11.11° C | 60% | 1020.5 hPa | 0 mm | - | 763 W/m² | - |
| 1777543411 | 11.11° C | 58% | 1021 hPa | 0 mm | - | 759 W/m² | - |
| 1777542489 | 10.56° C | 58% | 1020.8 hPa | 0 mm | - | 746 W/m² | - |
| 1777542182 | 11.11° C | 56% | 1021 hPa | 0 mm | - | 743 W/m² | - |
| 1777541874 | 10.56° C | 57% | 1021.1 hPa | 0 mm | - | 731 W/m² | - |
| 1777541260 | 10.56° C | 55% | 1021.2 hPa | 0 mm | - | 712 W/m² | - |
| 1777541260 | 10.56° C | 55% | 1021.2 hPa | 0 mm | - | 712 W/m² | - |
| 1777540952 | 10.56° C | 59% | 1021.1 hPa | 0 mm | - | 707 W/m² | - |
| 1777540645 | 10° C | 57% | 1021 hPa | 0 mm | - | 701 W/m² | - |
| 1777540338 | 10.56° C | 57% | 1021.1 hPa | 0 mm | - | 683 W/m² | - |
| 1777540338 | 10.56° C | 57% | 1021.1 hPa | 0 mm | - | 683 W/m² | - |
| 1777540030 | 10° C | 57% | 1021.3 hPa | 0 mm | - | 674 W/m² | - |
* Rain latest hour (hover to see other rain measurements)
** Current wind speed in m/s (hover to see current wind gust speed)